IZ0DPP-3 Weather Reports


time (UTC)temp
C
wind
direction
speed
KPH
gust
KPH
rain 1hr
cm
rain 24hr
cm
rain mn
cm
humidity
%
barometer
mb
20260507082704 20 108 0.0 3.2 0.00 0.58 0.51 72 1012.8
20260507081806 19 108 0.0 1.6 0.00 0.58 0.51 74 1012.7
20260507080904 19 107 0.0 1.6 0.00 0.58 0.51 74 1013.0
20260507080026 19 0 0.0 0.0 0.00 0.58 0.51 74 1012.6
20260507075404 19 108 0.0 1.6 0.00 0.58 0.51 77 1012.6
20260507074505 19 108 0.0 1.6 0.00 0.58 0.51 76 1012.7
20260507073604 18 107 0.0 1.6 0.00 0.58 0.51 78 1012.7
20260507072704 18 107 0.0 1.6 0.00 0.58 0.51 76 1012.9
20260507071805 18 107 0.0 1.6 0.00 0.58 0.51 80 1012.6
20260507070904 18 0 0.0 0.0 0.00 0.58 0.51 81 1013.0
20260507070009 17 0 0.0 0.0 0.00 0.58 0.51 84 1012.7
20260507065406 16 0 0.0 0.0 0.00 0.58 0.51 90 1012.8
20260507064504 15 0 0.0 0.0 0.00 0.58 0.51 94 1012.7
20260507063604 15 153 0.0 3.2 0.00 0.58 0.51 96 1012.9
20260507062704 15 0 0.0 0.0 0.00 0.58 0.51 98 1012.7
20260507061804 14 0 0.0 0.0 0.00 0.58 0.51 99 1012.5
20260507060906 14 0 0.0 0.0 0.00 0.58 0.51 99 1012.6
20260507060004 14 0 0.0 0.0 0.00 0.58 0.51 99 1012.5
20260507055404 14 0 0.0 0.0 0.00 0.58 0.51 99 1012.6
20260507054504 13 0 0.0 0.0 0.00 0.58 0.51 99 1012.4
20260507053625 13 0 0.0 0.0 0.00 0.58 0.51 99 1012.3
20260507052704 13 0 0.0 0.0 0.00 0.58 0.51 99 1012.3
20260507051804 12 0 0.0 0.0 0.00 0.58 0.51 99 1012.4
20260507050904 12 0 0.0 0.0 0.00 0.58 0.51 99 1012.4
20260507050005 12 0 0.0 0.0 0.00 0.58 0.51 99 1012.3
20260507045404 12 0 0.0 0.0 0.00 0.58 0.51 99 1012.3
20260507044504 12 0 0.0 0.0 0.00 0.58 0.51 99 1012.4
20260507043604 12 0 0.0 0.0 0.00 0.58 0.51 99 1012.3
20260507042707 12 0 0.0 0.0 0.00 0.58 0.51 99 1012.2
20260507041804 12 0 0.0 0.0 0.00 0.58 0.51 99 1012.1
20260507040904 12 0 0.0 0.0 0.00 0.58 0.51 99 1011.9
20260507040005 12 0 0.0 0.0 0.00 0.58 0.51 99 1011.6
20260507035425 12 0 0.0 0.0 0.00 0.58 0.51 99 1011.6
20260507034504 13 0 0.0 0.0 0.00 0.58 0.51 99 1012.0
20260507033625 13 0 0.0 0.0 0.03 0.61 0.51 99 1011.9
20260507032704 13 0 0.0 0.0 0.05 0.61 0.51 99 1011.7
20260507031804 13 0 0.0 0.0 0.08 0.61 0.51 99 1011.9
20260507030904 13 0 0.0 0.0 0.08 0.61 0.51 99 1011.9
20260507030004 13 0 0.0 0.0 0.10 0.61 0.51 99 1011.9
20260507025404 13 0 0.0 0.0 0.10 0.61 0.51 99 1012.0
20260507024504 13 0 0.0 0.0 0.10 0.61 0.51 99 1012.1
20260507023605 13 0 0.0 0.0 0.08 0.58 0.48 99 1011.5
20260507022707 13 0 0.0 0.0 0.05 0.56 0.46 99 1011.6
20260507021806 13 0 0.0 0.0 0.03 0.53 0.43 99 1011.9
20260507020905 13 0 0.0 0.0 0.03 0.53 0.43 99 1012.1
20260507020005 13 0 0.0 0.0 0.00 0.51 0.41 99 1012.1
20260507015404 13 0 0.0 0.0 0.00 0.51 0.41 99 1012.0
20260507014505 13 0 0.0 0.0 0.03 0.51 0.41 99 1012.0
20260507013604 13 0 0.0 0.0 0.05 0.51 0.41 99 1012.0
20260507012704 13 0 0.0 0.0 0.05 0.51 0.41 99 1012.0
20260507011804 13 0 0.0 0.0 0.08 0.51 0.41 99 1011.9
20260507010904 13 0 0.0 0.0 0.08 0.51 0.41 99 1011.6
20260507010004 13 0 0.0 0.0 0.08 0.51 0.41 99 1012.1
20260507005425 13 0 0.0 0.0 0.08 0.51 0.41 99 1011.9
20260507004504 13 0 0.0 0.0 0.05 0.48 0.38 99 1011.9
20260507003604 13 0 0.0 0.0 0.03 0.46 0.36 99 1011.9
20260507002705 13 0 0.0 0.0 0.05 0.46 0.36 99 1011.9
20260507001804 13 0 0.0 0.0 0.08 0.43 0.33 99 1011.9
20260507000925 14 0 0.0 0.0 0.10 0.43 0.33 99 1012.0
20260507000004 14 0 0.0 0.0 0.15 0.43 0.33 99 1012.0
20260506235405 14 0 0.0 0.0 0.15 0.43 0.33 99 1011.9
20260506234525 13 0 0.0 0.0 0.18 0.43 0.33 99 1011.9
20260506233626 13 0 0.0 0.0 0.18 0.43 0.33 98 1012.2
20260506232704 14 0 0.0 0.0 0.18 0.41 0.30 98 1012.0
20260506231825 14 0 0.0 0.0 0.18 0.36 0.25 98 1012.1
20260506230904 14 0 0.0 0.0 0.20 0.33 0.23 98 1012.2
20260506230004 14 0 0.0 0.0 0.18 0.28 0.18 98 1012.1
20260506225405 14 0 0.0 0.0 0.20 0.28 0.18 98 1012.2
20260506224525 14 0 0.0 0.0 0.20 0.25 0.15 97 1012.5
20260506223605 14 0 0.0 0.0 0.20 0.25 0.15 97 1012.0
20260506222704 14 0 0.0 0.0 0.18 0.23 0.13 96 1012.3
20260506221804 14 0 0.0 0.0 0.13 0.18 0.08 96 1012.0
20260506220904 15 0 0.0 0.0 0.08 0.13 0.03 95 1012.3
20260506220006 15 0 0.0 0.0 0.05 0.10 0.00 94 1012.1
20260506215407 15 0 0.0 0.0 0.03 0.08 0.08 94 1012.0
20260506214505 15 0 0.0 0.0 0.00 0.05 0.05 95 1011.7
20260506213603 15 0 0.0 0.0 0.00 0.05 0.05 96 1012.0
20260506212709 15 0 0.0 0.0 0.00 0.05 0.05 96 1011.7
20260506211804 15 0 0.0 0.0 0.00 0.05 0.05 95 1012.0
20260506210904 15 0 0.0 0.0 0.00 0.05 0.05 95 1011.9
20260506210047 15 0 0.0 0.0 0.00 0.05 0.05 94 1011.9
20260506205425 15 0 0.0 0.0 0.00 0.05 0.05 94 1011.6
20260506204504 15 0 0.0 0.0 0.00 0.05 0.05 93 1011.6
20260506203625 15 0 0.0 0.0 0.00 0.05 0.05 92 1011.7
20260506202746 15 0 0.0 0.0 0.00 0.05 0.05 92 1011.4
20260506201819 15 171 0.0 1.6 0.03 0.05 0.05 93 1011.4
20260506200907 15 0 0.0 0.0 0.03 0.05 0.05 93 1011.9
20260506200025 15 0 0.0 0.0 0.03 0.05 0.05 93 1011.9
20260506195405 15 0 0.0 0.0 0.03 0.05 0.05 93 1011.9
20260506194515 15 0 0.0 0.0 0.03 0.05 0.05 93 1011.7
20260506192710 16 0 0.0 0.0 0.03 0.05 0.05 92 1011.9
20260506191805 16 96 0.0 1.6 0.00 0.03 0.03 91 1011.7
20260506190925 16 0 0.0 0.0 0.00 0.03 0.03 91 1011.6
20260506190005 16 0 0.0 0.0 0.00 0.03 0.03 90 1011.5
20260506185425 16 0 0.0 0.0 0.00 0.03 0.03 90 1011.4
20260506184504 16 0 0.0 0.0 0.00 0.03 0.03 90 1011.3
20260506183607 16 0 0.0 0.0 0.00 0.03 0.03 90 1011.1
20260506182706 16 0 0.0 0.0 0.00 0.03 0.03 91 1011.2
20260506181804 16 59 0.0 1.6 0.00 0.03 0.03 92 1011.0
20260506180905 16 59 0.0 1.6 0.00 0.03 0.03 93 1010.9
20260506180005 16 156 0.0 1.6 0.00 0.03 0.03 92 1010.9
20260506175404 16 156 0.0 1.6 0.00 0.03 0.03 91 1011.0
20260506174504 16 148 0.0 6.4 0.00 0.03 0.03 89 1010.9
20260506173604 17 155 1.6 9.7 0.00 0.03 0.03 83 1010.8
20260506172704 18 157 0.0 6.4 0.00 0.03 0.03 72 1010.7
20260506171804 18 154 0.0 4.8 0.00 0.03 0.03 71 1010.5
20260506170904 18 154 0.0 4.8 0.00 0.03 0.03 71 1010.4
20260506170004 18 154 0.0 3.2 0.00 0.03 0.03 71 1010.9
20260506165404 18 154 0.0 4.8 0.00 0.03 0.03 71 1010.6
20260506164504 18 162 1.6 9.7 0.00 0.03 0.03 70 1010.6
20260506163604 18 160 0.0 4.8 0.00 0.03 0.03 73 1010.8
20260506162746 18 174 0.0 6.4 0.00 0.03 0.03 72 1010.5
20260506161804 18 157 1.6 6.4 0.00 0.03 0.03 72 1010.6
20260506160907 18 161 1.6 11.3 0.00 0.03 0.03 71 1010.8
20260506160004 18 162 1.6 14.5 0.00 0.03 0.03 73 1010.9
20260506155404 19 168 1.6 14.5 0.00 0.03 0.03 72 1010.8
20260506154504 19 162 3.2 14.5 0.00 0.03 0.03 70 1010.9
20260506153611 20 155 1.6 14.5 0.00 0.03 0.03 69 1010.7
20260506152707 20 166 1.6 11.3 0.00 0.03 0.03 69 1010.6
20260506151804 20 168 3.2 14.5 0.00 0.03 0.03 69 1010.6
20260506150905 20 161 3.2 20.9 0.00 0.03 0.03 68 1010.2
20260506150005 20 160 4.8 17.7 0.00 0.03 0.03 66 1010.5
20260506145404 20 157 6.4 17.7 0.00 0.03 0.03 65 1010.4
20260506144504 20 160 4.8 20.9 0.00 0.03 0.03 65 1010.5
20260506143604 21 161 4.8 17.7 0.00 0.03 0.03 65 1010.2
20260506142704 20 159 3.2 17.7 0.00 0.03 0.03 67 1010.3
20260506141809 20 159 3.2 14.5 0.00 0.03 0.03 66 1010.4
20260506140925 20 161 4.8 17.7 0.00 0.03 0.03 65 1010.5
20260506140005 21 165 3.2 16.1 0.00 0.03 0.03 64 1010.2
20260506135404 21 148 3.2 16.1 0.00 0.03 0.03 62 1010.2
20260506134525 21 172 3.2 14.5 0.00 0.03 0.03 61 1010.4
20260506133604 21 158 3.2 14.5 0.00 0.03 0.03 58 1010.2
20260506132704 22 155 3.2 16.1 0.00 0.03 0.03 55 1010.2
20260506131804 21 161 1.6 12.9 0.00 0.03 0.03 55 1010.7
20260506130925 21 170 4.8 12.9 0.00 0.03 0.03 57 1010.6
20260506130005 21 167 4.8 12.9 0.00 0.03 0.03 56 1011.0
20260506125404 21 157 3.2 12.9 0.00 0.03 0.03 57 1010.9
20260506124505 21 157 3.2 14.5 0.00 0.03 0.03 57 1011.2
20260506123604 21 153 3.2 14.5 0.00 0.03 0.03 57 1011.1
20260506122719 21 153 3.2 22.5 0.00 0.03 0.03 59 1010.9
20260506121804 21 153 3.2 12.9 0.00 0.03 0.03 57 1010.9
20260506120904 22 155 3.2 16.1 0.00 0.03 0.03 55 1011.0
20260506120011 21 158 3.2 14.5 0.00 0.03 0.03 54 1011.1
20260506115405 21 161 1.6 12.9 0.00 0.03 0.03 56 1011.0
20260506114525 21 157 4.8 17.7 0.00 0.03 0.03 56 1011.2
20260506113603 21 157 4.8 16.1 0.00 0.03 0.03 56 1011.1
20260506112703 21 155 3.2 14.5 0.00 0.03 0.03 56 1011.4
20260506111825 21 157 4.8 20.9 0.00 0.03 0.03 55 1011.3
20260506110924 21 157 4.8 16.1 0.00 0.03 0.03 58 1011.1
20260506110024 21 168 6.4 20.9 0.00 0.03 0.03 57 1011.1
20260506105403 21 159 4.8 20.9 0.00 0.03 0.03 56 1011.2
20260506104515 20 170 6.4 22.5 0.00 0.03 0.03 58 1011.1
20260506103624 21 170 4.8 16.1 0.00 0.03 0.03 59 1011.4
20260506102724 20 153 3.2 16.1 0.00 0.03 0.03 61 1011.2
20260506101804 21 143 0.0 3.2 0.00 0.03 0.03 65 1011.3
20260506100903 21 143 0.0 3.2 0.00 0.03 0.03 68 1011.2
20260506100004 20 143 0.0 3.2 0.00 0.03 0.03 70 1011.1
20260506095404 20 142 0.0 4.8 0.00 0.03 0.03 69 1011.3
20260506094503 20 141 0.0 3.2 0.00 0.03 0.03 69 1011.1
20260506093604 19 141 0.0 3.2 0.00 0.03 0.03 68 1011.2
20260506092703 19 141 0.0 4.8 0.00 0.03 0.03 69 1011.4
20260506091803 19 140 0.0 4.8 0.00 0.03 0.03 66 1011.1
20260506090903 20 137 0.0 1.6 0.00 0.03 0.03 68 1011.3
20260506090025 20 146 0.0 6.4 0.00 0.03 0.03 69 1011.2
20260506085403 19 131 0.0 4.8 0.00 0.03 0.03 71 1011.0
20260506084503 18 146 0.0 4.8 0.00 0.03 0.03 73 1011.2
20260506083604 18 163 0.0 6.4 0.00 0.03 0.03 76 1011.1